LB7PJ Weather Reports


time (UTC)temp
F
wind
direction
speed
knots
gust
knots
rain 1hr
in
rain 24hr
in
rain mn
in
humidity
%
barometer
mb
20260507233002 38 293 3.5 0.0 0.00 0.00 0.00 61 1009.9
20260507231502 38 293 3.5 0.0 0.00 0.00 0.00 61 1009.9
20260507230003 38 293 3.5 0.0 0.00 0.00 0.00 61 1009.9
20260507224502 38 293 3.5 0.0 0.00 0.00 0.00 61 1009.9
20260507223002 39 274 1.7 0.0 0.00 0.00 0.00 61 1009.9
20260507221501 39 274 1.7 0.0 0.00 0.00 0.00 61 1009.9
20260507220001 42 296 1.7 0.0 0.00 0.00 0.00 61 1009.9
20260507214502 42 296 1.7 0.0 0.00 0.00 0.00 61 1009.9
20260507213002 42 296 1.7 0.0 0.00 0.00 0.00 61 1009.9
20260507211502 43 296 1.7 0.0 0.00 0.00 0.00 61 1009.9
20260507210002 43 296 1.7 0.0 0.00 0.00 0.00 61 1009.9
20260507204502 43 296 1.7 0.0 0.00 0.00 0.00 61 1009.9
20260507203001 47 316 1.7 0.0 0.00 0.00 0.00 61 1009.9
20260507201502 47 316 1.7 0.0 0.00 0.00 0.00 61 1009.9
20260507200002 52 94 1.7 0.0 0.00 0.00 0.00 61 1009.9
20260507194502 52 94 1.7 0.0 0.00 0.00 0.00 61 1009.9
20260507193002 52 94 1.7 0.0 0.00 0.00 0.00 61 1009.9
20260507191502 51 94 1.7 0.0 0.00 0.00 0.00 61 1009.9
20260507190003 51 94 1.7 0.0 0.00 0.00 0.00 61 1009.9
20260507184502 53 102 2.6 0.0 0.00 0.00 0.00 61 1009.9
20260507183002 53 102 2.6 0.0 0.00 0.00 0.00 61 1009.9
20260507181502 53 102 2.6 0.0 0.00 0.00 0.00 61 1009.9
20260507180002 55 102 3.5 0.0 0.00 0.00 0.00 61 1009.9
20260507174502 55 102 3.5 0.0 0.00 0.00 0.00 61 1009.9
20260507173002 55 102 3.5 0.0 0.00 0.00 0.00 61 1009.9
20260507171503 55 102 3.5 0.0 0.00 0.00 0.00 61 1009.9
20260507170002 55 102 3.5 0.0 0.00 0.00 0.00 61 1009.9
20260507164501 55 94 2.6 0.0 0.00 0.00 0.00 61 1009.9
20260507163002 55 94 2.6 0.0 0.00 0.00 0.00 61 1009.9
20260507161501 55 94 2.6 0.0 0.00 0.00 0.00 61 1009.9
20260507160002 55 94 2.6 0.0 0.00 0.00 0.00 61 1009.9
20260507154502 55 94 2.6 0.0 0.00 0.00 0.00 61 1009.9
20260507153002 55 106 2.6 0.0 0.00 0.00 0.00 61 1009.9
20260507151501 55 106 2.6 0.0 0.00 0.00 0.00 61 1009.9
20260507150002 55 106 2.6 0.0 0.00 0.00 0.00 61 1009.9
20260507144501 55 106 2.6 0.0 0.00 0.00 0.00 61 1009.9
20260507143002 55 106 2.6 0.0 0.00 0.00 0.00 61 1009.9
20260507141501 54 102 3.5 0.0 0.00 0.00 0.00 61 1009.9
20260507140002 54 102 3.5 0.0 0.00 0.00 0.00 61 1009.9
20260507134502 54 102 3.5 0.0 0.00 0.00 0.00 61 1009.9
20260507133002 54 104 2.6 0.0 0.00 0.00 0.00 61 1009.9
20260507131502 54 104 2.6 0.0 0.00 0.00 0.00 61 1009.9
20260507130002 53 110 2.6 0.0 0.00 0.00 0.00 61 1009.9
20260507124502 53 110 2.6 0.0 0.00 0.00 0.00 61 1009.9
20260507123002 53 110 2.6 0.0 0.00 0.00 0.00 61 1009.9
20260507121502 51 108 2.6 0.0 0.00 0.00 0.00 61 1009.9
20260507120002 51 108 2.6 0.0 0.00 0.00 0.00 61 1009.9
20260507114502 49 88 2.6 0.0 0.00 0.00 0.00 61 1009.9
20260507113001 49 88 2.6 0.0 0.00 0.00 0.00 61 1009.9
20260507111503 49 88 2.6 0.0 0.00 0.00 0.00 61 1009.9
20260507110002 49 88 2.6 0.0 0.00 0.00 0.00 61 1009.9
20260507104502 49 88 2.6 0.0 0.00 0.00 0.00 61 1009.9
20260507103001 49 88 2.6 0.0 0.00 0.00 0.00 61 1009.9
20260507101502 47 68 2.6 0.0 0.00 0.00 0.00 61 1009.9
20260507100001 47 68 2.6 0.0 0.00 0.00 0.00 61 1009.9
20260507094502 45 118 1.7 0.0 0.00 0.00 0.00 61 1009.9
20260507093002 45 118 1.7 0.0 0.00 0.00 0.00 61 1009.9
20260507091502 45 118 1.7 0.0 0.00 0.00 0.00 61 1009.9
20260507090002 43 118 1.7 0.0 0.00 0.00 0.00 61 1009.9
20260507084502 43 118 1.7 0.0 0.00 0.00 0.00 61 1009.9
20260507083002 40 140 1.7 0.0 0.00 0.00 0.00 61 1009.9
20260507081502 40 140 1.7 0.0 0.00 0.00 0.00 61 1009.9
20260507080002 40 140 1.7 0.0 0.00 0.00 0.00 61 1009.9
20260507074502 36 148 0.9 0.0 0.00 0.00 0.00 61 1009.9
20260507073002 36 148 0.9 0.0 0.00 0.00 0.00 61 1009.9
20260507071501 36 148 0.9 0.0 0.00 0.00 0.00 61 1009.9
20260507070003 36 148 0.9 0.0 0.00 0.00 0.00 61 1009.9
20260507064501 36 148 0.9 0.0 0.00 0.00 0.00 61 1009.9
20260507063002 32 293 1.7 0.0 0.00 0.00 0.00 61 1009.9
20260507061502 32 293 1.7 0.0 0.00 0.00 0.00 61 1009.9
20260507060002 30 288 1.7 0.0 0.00 0.00 0.00 61 1009.9
20260507054501 30 288 1.7 0.0 0.00 0.00 0.00 61 1009.9
20260507053003 30 288 1.7 0.0 0.00 0.00 0.00 61 1009.9
20260507051501 30 288 1.7 0.0 0.00 0.00 0.00 61 1009.9
20260507050002 30 288 1.7 0.0 0.00 0.00 0.00 61 1009.9
20260507044501 29 293 2.6 0.0 0.00 0.00 0.00 61 1009.9
20260507043002 29 293 2.6 0.0 0.00 0.00 0.00 61 1009.9
20260507041502 29 293 2.6 0.0 0.00 0.00 0.00 61 1009.9
20260507040002 30 289 2.6 0.0 0.00 0.00 0.00 61 1009.9
20260507034502 30 289 2.6 0.0 0.00 0.00 0.00 61 1009.9
20260507033002 30 289 2.6 0.0 0.00 0.00 0.00 61 1009.9
20260507031501 31 289 2.6 0.0 0.00 0.00 0.00 61 1009.9
20260507030002 31 289 2.6 0.0 0.00 0.00 0.00 61 1009.9
20260507024502 31 289 2.6 0.0 0.00 0.00 0.00 61 1009.9
20260507023002 31 289 2.6 0.0 0.00 0.00 0.00 61 1009.9
20260507021502 31 289 2.6 0.0 0.00 0.00 0.00 61 1009.9
20260507020001 31 294 2.6 0.0 0.00 0.00 0.00 61 1009.9
20260507014502 31 294 2.6 0.0 0.00 0.00 0.00 61 1009.9
20260507013002 31 294 2.6 0.0 0.00 0.00 0.00 61 1009.9
20260507011502 31 294 2.6 0.0 0.00 0.00 0.00 61 1009.9
20260507010002 31 294 2.6 0.0 0.00 0.00 0.00 61 1009.9
20260507004502 32 300 2.6 0.0 0.00 0.00 0.00 61 1009.9
20260507003002 32 300 2.6 0.0 0.00 0.00 0.00 61 1009.9
20260507001502 33 296 2.6 0.0 0.00 0.00 0.00 61 1009.9
20260507000002 33 296 2.6 0.0 0.00 0.00 0.00 61 1009.9
20260506234502 33 296 2.6 0.0 0.00 0.00 0.00 61 1009.9